This demonstration page uses our WeatherBlox Daily Observations layout. Learn more.

Left ArrowRight Arrow

Hourly Observations for September 4, 2018

Temp ( °F °C ) Dew Point ( °F °C ) Humidity (%) Winds ( mph kmh ) Pressure ( in mb ) Visibility ( mi km ) Precip ( " mm )
12:53 am 00:53 Mostly Cloudy 68 20 65 18.3 90 90 S 5 7 30.00 1016 10 16 0.00 0.03
1:53 am 01:53 Cloudy 67 19.4 65 18.3 93 93 SE 8 13 30.01 1016 10 16 0.00 0.00
2:16 am 02:16 Cloudy with Light Rain 66 19 66 19 100 100 SE 8 13 29.97 1015 10 16 0.00 0.00
2:22 am 02:22 Cloudy 66 19 66 19 100 100 SE 7 11 29.97 1015 10 16 0.00 0.00
2:41 am 02:41 Cloudy with Light Rain 68 20 67 19.4 96 96 SSE 8 13 29.97 1015 9 14 0.00 0.03
2:53 am 02:53 Cloudy with Light Rain 68 20 67 19.4 96 96 S 7 11 29.99 1016 10 16 0.01 0.25
3:28 am 03:28 Cloudy with Rain 68 20 67 19.4 96 96 SSE 8 13 29.97 1015 5 8 0.08 2.03
3:53 am 03:53 Cloudy with Light Rain 68 20 68 20 100 100 SSE 7 11 29.98 1015 10 16 0.14 3.56
4:02 am 04:02 Cloudy with Light Rain 70 21 68 20 94 94 SSE 8 13 29.97 1015 10 16 0.00 0.00
4:35 am 04:35 Cloudy with Rain 69 20.6 68 20 96 96 SE 7 11 29.97 1015 3 4 0.06 1.52
4:38 am 04:38 Cloudy with Rain 70 21 68 20 94 94 SSE 6 9 29.97 1015 3 5 0.00 0.00
4:53 am 04:53 Cloudy with Rain 69 20.6 68 20 96 96 SSE 10 17 29.97 1015 4 6 0.11 2.79
5:02 am 05:02 Cloudy with Rain 70 21 68 20 94 94 S 9 15 29.94 1014 6 10 0.00 0.00
5:10 am 05:10 Cloudy with Rain 69 20.6 68 20 96 96 S 8 13 29.94 1014 5 8 0.04 1.02
5:22 am 05:22 Cloudy with Heavy Rain 70 21 68 20 94 94 S 7 11 29.94 1014 2 3 0.00 0.00
5:30 am 05:30 Cloudy with Heavy Rain 70 21 68 20 94 94 S 6 9 29.94 1014 2 3 0.00 0.00
5:42 am 05:42 Cloudy with Light Rain 70 21 68 20 94 94 S 6 9 29.94 1014 5 8 0.00 0.00
5:51 am 05:51 Cloudy with Light Rain 70 21 68 20 94 94 S 6 9 29.94 1014 7 11 0.27 6.86
5:53 am 05:53 Cloudy with Light Rain 69 20.6 68 20 96 96 S 8 13 29.96 1015 7 11 0.28 7.11
6:53 am 06:53 Cloudy with Light Rain 69 20.6 68 20 96 96 S 6 9 29.96 1015 10 16 0.02 0.51
7:24 am 07:24 Cloudy 70 21 68 20 94 94 S 6 9 29.94 1014 9 14 0.00 0.00
7:44 am 07:44 Cloudy with Heavy Rain 70 21 68 20 94 94 S 5 7 29.94 1014 3 4 0.00 0.00
7:48 am 07:48 Cloudy with Heavy Rain 70 21 68 20 94 94 S 6 9 29.94 1014 2 3 0.00 0.00
7:53 am 07:53 Cloudy with Heavy Rain 69 20.6 68 20 96 96 S 5 7 29.96 1015 2 2 0.20 5.08
8:02 am 08:02 Cloudy with Rain 70 21 68 20 94 94 SSE 3 6 29.94 1014 3 4 0.00 0.00
8:16 am 08:16 Cloudy with Heavy Rain 70 21 68 20 94 94 SE 3 6 29.94 1014 1 2 0.00 0.00
8:53 am 08:53 Cloudy with Light Rain 69 20.6 69 20.6 100 100 Calm 29.96 1015 2 2 0.31 7.87
8:56 am 08:56 Cloudy with Light Rain 70 21 70 21 100 100 ESE 3 6 29.94 1014 3 5 0.00 0.00
9:08 am 09:08 Cloudy with Light Rain 69 20.6 69 20.6 100 100 SE 3 6 29.94 1014 4 6 0.02 0.51
9:13 am 09:13 Cloudy with Heavy Rain 69 20.6 69 20.6 100 100 ESE 3 6 29.94 1014 2 3 0.05 1.27
9:18 am 09:18 Cloudy with Rain 70 21 70 21 100 100 E 3 6 29.94 1014 2 3 0.00 0.00
9:53 am 09:53 Cloudy with Rain 70 21.1 69 20.6 97 97 E 3 6 29.96 1015 1 2 0.31 7.87
10:40 am 10:40 Cloudy with Light Rain 70 21 70 21 100 100 Calm 29.94 1014 2 3 0.00 0.00
10:49 am 10:49 Cloudy with Light Rain 70 21 70 21 100 100 Calm 29.94 1014 2 3 0.20 5.08
10:50 am 10:50 Cloudy with Light Rain 70 21 70 21 100 100 Calm 29.94 1014 2 3 0.00 0.00
10:53 am 10:53 Cloudy with Light Rain 70 21.1 69 20.6 97 97 Calm 29.97 1015 2 3 0.21 5.33
11:04 am 11:04 Cloudy with Light Rain 70 21 70 21 100 100 Calm 29.94 1014 2 3 0.00 0.00
11:13 am 11:13 Cloudy with Light Rain 71 21.7 70 21.1 96 96 Calm 29.94 1014 2 3 0.02 0.51
11:26 am 11:26 Cloudy with Mist and Fog 72 22.2 70 21.1 94 94 S 3 6 29.94 1014 5 8 0.02 0.51
11:34 am 11:34 Cloudy 73 23 72 22 94 94 VRB 3 6 29.94 1014 10 16 0.00 0.00
11:41 am 11:41 Cloudy 73 22.8 70 21.1 90 90 S 5 7 29.91 1013 10 16 0.02 0.51
11:53 am 11:53 Cloudy 74 23.3 71 21.7 91 91 SSW 6 9 29.97 1015 10 16 0.02 0.51
12:07 pm 12:07 Cloudy 74 23.3 70 21.1 88 88 VRB 5 7 29.91 1013 10 16 0.00 0.00
12:43 pm 12:43 Cloudy 74 23.3 70 21.1 88 88 W 7 11 29.91 1013 10 16 0.00 0.00
12:53 pm 12:53 Cloudy with Light Rain 74 23.3 69 20.6 85 85 W 5 7 29.96 1015 9 14 0.01 0.25
12:59 pm 12:59 Cloudy with Light Rain 74 23.3 70 21.1 88 88 NW 5 7 29.91 1013 9 14 0.00 0.03
1:37 pm 13:37 Cloudy 75 24 72 22 89 89 Calm 29.91 1013 10 16 0.00 0.00
1:46 pm 13:46 Mostly Cloudy 79 26 72 22 79 79 VRB 3 6 29.91 1013 10 16 0.00 0.00
1:53 pm 13:53 Mostly Cloudy 78 25.6 69 20.6 74 74 N 3 6 29.95 1014 10 16 0.00 0.03
2:09 pm 14:09 Mostly Cloudy 77 25 70 21 79 79 ESE 3 6 29.88 1012 10 16 0.00 0.00
2:28 pm 14:28 Partly Cloudy with Light Rain 79 26 70 21 74 74 ESE 5 7 29.88 1012 10 16 0.00 0.00
2:53 pm 14:53 Mostly Sunny 78 25.6 69 20.6 74 74 Calm 29.93 1014 10 16 0.00 0.03
3:18 pm 15:18 Mostly Cloudy 79 26 70 21 74 74 S 3 6 29.88 1012 10 16 0.00 0.00
3:25 pm 15:25 Mostly Cloudy 81 27.2 70 21.1 69 69 Calm 29.85 1011 10 16 0.00 0.00
3:53 pm 15:53 Partly Cloudy 79 26.1 69 20.6 72 72 Calm 29.91 1013 10 16 0.00 0.00
4:53 pm 16:53 Mostly Sunny 81 27.2 68 20 65 65 SSW 6 9 29.89 1012 10 16 0.00 0.00
5:53 pm 17:53 Mostly Sunny 81 27.2 69 20.6 67 67 SSW 7 11 29.89 1012 10 16 0.00 0.00
6:53 pm 18:53 Mostly Sunny 79 26.1 70 21.1 74 74 S 6 9 29.91 1013 10 16 0.00 0.00
7:53 pm 19:53 Mostly Sunny 77 25 70 21.1 79 79 SSW 5 7 29.92 1013 10 16 0.00 0.00
8:53 pm 20:53 Mostly Cloudy 75 23.9 70 21.1 84 84 Calm 29.93 1014 10 16 0.00 0.00
9:33 pm 21:33 Cloudy 70 21.1 65 18.3 84 84 N 12 19 29.94 1014 10 16 0.00 0.00
9:50 pm 21:50 Cloudy 70 21 64 18 83 83 N 17 28 29.97 1015 10 16 0.00 0.00
9:53 pm 21:53 Cloudy 69 20.6 64 17.8 84 84 N 21 33 29.97 1015 10 16 0.00 0.00
10:10 pm 22:10 Cloudy with Nearby Thunderstorms 70 21 64 18 83 83 NNW 15 24 29.97 1015 10 16 0.00 0.00
10:19 pm 22:19 Cloudy 68 20 65 18.3 90 90 N 10 17 29.97 1015 10 16 0.00 0.00
10:31 pm 22:31 Cloudy with Heavy Rain 67 19.4 66 18.9 97 97 N 14 22 29.97 1015 2 3 0.26 6.60
10:42 pm 22:42 Cloudy with Rain 66 19 66 19 100 100 N 8 13 30.00 1016 3 5 0.00 0.00
10:49 pm 22:49 Cloudy with Light Rain 66 19 66 19 100 100 N 9 15 30.00 1016 5 8 0.00 0.00
10:53 pm 22:53 Cloudy with Heavy Rain 67 19.4 66 18.9 97 97 N 9 15 30.02 1017 3 5 0.46 11.68
11:00 pm 23:00 Cloudy with Heavy Rain 66 19 66 19 100 100 NNE 9 15 30.00 1016 2 3 0.00 0.00
11:11 pm 23:11 Cloudy with Light Rain 67 19.4 66 18.9 97 97 NNE 8 13 30.00 1016 5 8 0.09 2.29
11:26 pm 23:26 Cloudy with Heavy Rain 66 19 66 19 100 100 WNW 13 20 30.06 1018 2 3 0.00 0.00
11:33 pm 23:33 Cloudy with Heavy Rain 67 19.4 65 18.3 93 93 N 21 33 30.00 1016 1 2 0.46 11.68
11:39 pm 23:39 Cloudy with Heavy Rain 67 19.4 65 18.3 93 93 N 12 19 30.00 1016 2 2 0.51 12.95
11:43 pm 23:43 Cloudy with Rain 67 19.4 65 18.3 93 93 N 12 19 30.00 1016 3 5 0.52 13.21
11:53 pm 23:53 Cloudy with Rain 67 19.4 65 18.3 93 93 N 9 15 30.04 1017 6 10 0.55 13.97

Powered by AerisWeather